This demonstration page uses our WeatherBlox Daily Observations layout. Learn more.

40.92945, -100.16068

Hourly Observations for June 17, 2018

Temp ( °F °C ) Dew Point ( °F °C ) Humidity (%) Winds ( mph kmh ) Pressure ( in mb ) Visibility ( mi km ) Precip ( " mm )
12:15 am 00:15 Mostly Cloudy N/A N/A N/A SSE 16 26 N/A 10 16.0934 0 0
12:35 am 00:35 Partly Cloudy N/A N/A N/A S 18 30 N/A 10 16.0934 0 0
12:55 am 00:55 Clear N/A N/A N/A S 17 28 N/A 10 16.0934 0 0
1:15 am 01:15 Clear N/A N/A N/A S 21 33 N/A 10 16.0934 0 0
1:35 am 01:35 Clear N/A N/A N/A S 22 35 N/A 10 16.0934 0 0
1:55 am 01:55 Clear 80 26.6 65 18.3 60 60 S 16 26 29.62 1003 10 16.0934 0 0
2:15 am 02:15 Clear N/A N/A N/A S 15 24 N/A 10 16.0934 0 0
2:35 am 02:35 Clear N/A N/A N/A S 12 19 N/A 10 16.0934 0 0
2:55 am 02:55 Clear 78 25.6 65 18.2 64 64 S 8 13 29.62 1003 10 16.0934 0 0
3:15 am 03:15 Partly Cloudy 78 25.7 64 17.6 61 61 S 14 22 29.65 1004 10 16.0934 0 0
3:35 am 03:35 Mostly Cloudy 78 25.6 64 17.6 61 61 S 13 20 29.65 1004 10 16.0934 0 0
3:55 am 03:55 Partly Cloudy 77 25.2 63 17.4 62 62 SSW 15 24 29.65 1004 10 16.0934 0 0
4:15 am 04:15 Clear 77 24.8 63 17.4 64 64 SSW 10 17 29.65 1004 10 16.0934 0 0
4:35 am 04:35 Clear 76 24.3 64 17.5 66 66 SSW 9 15 29.68 1005 10 16.0934 0 0
4:55 am 04:55 Clear 74 23.6 64 17.5 69 69 SSW 7 11 29.68 1005 10 16.0934 0 0
5:15 am 05:15 Clear 73 23 63 17.4 71 71 S 6 9 29.68 1005 10 16.0934 0 0
5:35 am 05:35 Partly Cloudy 73 22.9 63 17.3 71 71 S 7 11 29.68 1005 10 16.0934 0 0
5:55 am 05:55 Clear 73 22.6 64 17.5 73 73 SSW 9 15 29.68 1005 10 16.0934 0 0
6:15 am 06:15 Sunny 72 22 64 17.5 76 76 S 7 11 29.71 1006 10 16.0934 0 0
6:35 am 06:35 Partly Cloudy 71 21.5 64 17.6 79 79 SSE 6 9 29.71 1006 10 16.0934 0 0
6:55 am 06:55 Partly Cloudy 72 22.1 64 17.6 76 76 SE 7 11 29.71 1006 10 16.0934 0 0
7:15 am 07:15 Sunny 72 22.2 64 17.7 76 76 SE 6 9 29.71 1006 10 16.0934 0 0
7:35 am 07:35 Partly Cloudy 72 22.1 64 17.8 77 77 SE 7 11 29.71 1006 10 16.0934 0 0
7:55 am 07:55 Mostly Cloudy 73 22.5 64 17.9 75 75 SE 7 11 29.74 1007 10 16.0934 0 0
8:15 am 08:15 Cloudy 73 23 65 18.1 74 74 SE 8 13 29.74 1007 10 16.0934 0 0
8:35 am 08:35 Mostly Cloudy 74 23.5 65 18.4 73 73 SSE 10 17 29.74 1007 10 16.0934 0 0
8:55 am 08:55 Cloudy 75 23.7 65 18.2 71 71 SSE 12 19 29.74 1007 10 16.0934 0 0
9:15 am 09:15 Cloudy 76 24.3 65 18.4 70 70 SSE 12 19 29.74 1007 10 16.0934 0 0
9:35 am 09:35 Cloudy 76 24.2 65 18.5 71 71 S 9 15 29.74 1007 10 16.0934 0 0
9:55 am 09:55 Cloudy 76 24.5 65 18.6 70 70 S 10 17 29.74 1007 10 16.0934 0 0
10:15 am 10:15 Cloudy 76 24.7 66 18.9 70 70 S 8 13 29.74 1007 10 16.0934 0 0
10:35 am 10:35 Cloudy 77 25.2 66 19.1 69 69 S 12 19 29.74 1007 10 16.0934 0 0
10:55 am 10:55 Cloudy 78 25.7 67 19.3 68 68 S 13 20 29.71 1006 10 16.0934 0 0
11:15 am 11:15 Cloudy 79 26 67 19.6 68 68 SSE 10 17 29.74 1007 10 16.0934 0 0
11:35 am 11:35 Cloudy 80 26.5 67 19.6 66 66 SE 12 19 29.71 1006 10 16.0934 0 0
11:55 am 11:55 Cloudy 82 27.9 68 20 62 62 SSE 12 19 29.71 1006 10 16.0934 0 0
12:15 pm 12:15 Cloudy 83 28.3 68 20.1 61 61 SSE 14 22 29.71 1006 10 16.0934 0 0
12:35 pm 12:35 Cloudy 84 28.8 67 19.7 58 58 SSE 16 26 29.71 1006 10 16.0934 0 0
12:55 pm 12:55 Cloudy 87 30.4 68 19.9 53 53 SSE 20 31 29.65 1004 7 11.26538 0 0
1:15 pm 13:15 Cloudy 85 29.7 67 19.6 55 55 SSE 15 24 29.65 1004 10 16.0934 0 0
1:35 pm 13:35 Cloudy N/A N/A N/A S 15 24 N/A 10 16.0934 0 0
1:55 pm 13:55 Mostly Cloudy 89 31.8 68 20.2 50 50 SSE 15 24 29.65 1004 10 16.0934 0 0
2:15 pm 14:15 Mostly Cloudy N/A N/A N/A SSE 17 28 N/A 10 16.0934 0 0
2:35 pm 14:35 Mostly Cloudy N/A N/A N/A SSE 18 30 N/A 10 16.0934 0 0
2:55 pm 14:55 Sunny N/A N/A N/A S 20 31 N/A 10 16.0934 0 0
3:15 pm 15:15 Partly Cloudy N/A N/A N/A SSE 17 28 N/A 10 16.0934 0 0
3:35 pm 15:35 Sunny N/A N/A N/A SSE 22 35 N/A 10 16.0934 0 0
3:55 pm 15:55 Sunny N/A N/A N/A SSE 18 30 N/A 10 16.0934 0 0
4:15 pm 16:15 Sunny N/A N/A N/A S 17 28 N/A 10 16.0934 0 0
4:35 pm 16:35 Sunny N/A N/A N/A S 15 24 N/A 10 16.0934 0 0
4:55 pm 16:55 Sunny 90 32.3 65 18.5 44 44 S 21 33 29.59 1002 10 16.0934 0 0
5:15 pm 17:15 Partly Cloudy N/A N/A N/A S 15 24 N/A 10 16.0934 0 0
5:35 pm 17:35 Partly Cloudy N/A N/A N/A S 21 33 N/A 10 16.0934 0 0
5:55 pm 17:55 Sunny N/A N/A N/A S 21 33 N/A 10 16.0934 0 0
6:15 pm 18:15 Sunny N/A N/A N/A S 18 30 N/A 10 16.0934 0 0
6:35 pm 18:35 Partly Cloudy 94 34.2 62 16.9 36 36 S 24 39 29.59 1002 10 16.0934 0 0
6:55 pm 18:55 Partly Cloudy N/A N/A N/A S 17 28 N/A 10 16.0934 0 0
7:15 pm 19:15 Sunny N/A N/A N/A S 23 37 N/A 10 16.0934 0 0
7:35 pm 19:35 Partly Cloudy N/A N/A N/A S 21 33 N/A 10 16.0934 0 0
7:55 pm 19:55 Sunny N/A N/A N/A S 20 31 N/A 10 16.0934 0 0
8:15 pm 20:15 Sunny N/A N/A N/A SSE 14 22 N/A 10 16.0934 0 0
8:35 pm 20:35 Sunny 86 30.2 67 19.5 53 53 SSE 16 26 29.62 1003 10 16.0934 0 0
8:55 pm 20:55 Sunny N/A N/A N/A SSE 16 26 N/A 10 16.0934 0 0
9:15 pm 21:15 Clear 85 29.2 67 19.5 56 56 SSE 15 24 29.65 1004 10 16.0934 0 0
9:35 pm 21:35 Clear 84 29.1 67 19.2 55 55 SSE 15 24 29.65 1004 10 16.0934 0 0
9:55 pm 21:55 Clear 84 28.7 66 18.7 55 55 S 18 30 29.65 1004 10 16.0934 0 0
10:15 pm 22:15 Clear 83 28.4 65 18.2 54 54 S 22 35 29.71 1006 10 16.0934 0 0
10:35 pm 22:35 Clear 83 28.1 64 18 54 54 SW 10 17 29.74 1007 10 16.0934 0 0
10:55 pm 22:55 Clear 82 27.5 65 18.6 58 58 WNW 8 13 29.77 1008 10 16.0934 0 0
11:15 pm 23:15 Clear 78 25.4 64 17.9 63 63 NNW 16 26 29.8 1009 10 16.0934 0 0
11:35 pm 23:35 Clear 72 22.1 64 18 78 78 N 13 20 29.83 1010 10 16.0934 0 0
11:55 pm 23:55 Clear 71 21.8 65 18.5 82 82 NNE 14 22 29.83 1010 10 16.0934 0 0

Powered by AerisWeather